Auburn, CA

5:20 AM PST on November 15, 2019 (GMT -0800)
Auburn Municipal

Weather History for KAUN - June, 2019

Change the Weather History Date:

Thursday, June 13, 2019

  Actual Average Record
Temperature  
Mean Temperature 78 °F -  
Max Temperature 86 °F 82 °F 101 °F (1960)
Min Temperature 69 °F 55 °F 38 °F (1952)
Cooling Degree Days 12    
Growing Degree Days 28 (Base 50)    
Moisture  
Dew Point 57 °F    
Average Humidity 48    
Maximum Humidity 73    
Minimum Humidity 40    
Precipitation  
Precipitation 0.00 in - - ()
Sea Level Pressure  
Sea Level Pressure 29.87 in    
Wind  
Wind Speed 4 mph (ESE)    
Max Wind Speed 10 mph    
Max Gust Speed 15 mph    
Visibility 9 miles    
Events      
Averages and records for this station are not official NWS values.
T = Trace of Precipitation, MM = Missing Value Source: NWS Daily Summary

Daily Weather History Graph

Daily Weather History Graph

Search for Another Location

Airport or City:

Astronomy

Jun. 13, 2019 Rise Set
Actual Time 5:38 AM PDT 8:30 PM PDT
Civil Twilight 5:06 AM PDT 9:02 PM PDT
Nautical Twilight 4:25 AM PDT 9:43 PM PDT
Astronomical Twilight 3:39 AM PDT 10:29 PM PDT
Moon 4:53 PM PDT (6/13) 3:23 AM PDT (6/13)
Length of Visible Light 15h 56m
Length of Day
14h 52m
Waxing Gibbous, 86% of the Moon is Illuminated
Jun 13
Waxing Gibbous
Jun 17
Full
Jun 25
Last Quarter
Jul 2
New
Jul 9
First Quarter

Hourly Weather History & Observations

Time (PDT) Temp. Heat Index Dew Point Humidity Pressure Visibility Wind Dir Wind Speed Gust Speed Precip Events Conditions
12:15 AM 77.0 °F - 53.6 °F 44% 29.89 in 10.0 mi Calm Calm - N/A   Clear
12:35 AM 77.0 °F - 53.6 °F 44% 29.89 in 10.0 mi ESE 5.8 mph - N/A   Clear
12:55 AM 75.2 °F - 55.4 °F 50% 29.88 in 10.0 mi Calm Calm - N/A   Clear
1:15 AM 73.4 °F - 53.6 °F 50% 29.88 in 10.0 mi East 6.9 mph - N/A   Clear
1:35 AM 75.2 °F - 53.6 °F 47% 29.88 in 10.0 mi East 8.1 mph - N/A   Clear
1:55 AM 73.4 °F - 53.6 °F 50% 29.88 in 10.0 mi East 8.1 mph - N/A   Clear
2:15 AM 73.4 °F - 53.6 °F 50% 29.88 in 10.0 mi East 8.1 mph - N/A   Clear
2:35 AM 73.4 °F - 53.6 °F 50% 29.88 in 10.0 mi East 8.1 mph - N/A   Clear
2:55 AM 73.4 °F - 53.6 °F 50% 29.88 in 10.0 mi East 9.2 mph - N/A   Clear
3:15 AM 73.4 °F - 53.6 °F 50% 29.87 in 10.0 mi East 9.2 mph - N/A   Clear
3:35 AM 73.4 °F - 51.8 °F 47% 29.87 in 10.0 mi East 10.4 mph - N/A   Clear
3:55 AM 73.4 °F - 51.8 °F 47% 29.87 in 10.0 mi East 9.2 mph - N/A   Clear
4:15 AM 71.6 °F - 51.8 °F 50% 29.87 in 10.0 mi East 6.9 mph - N/A   Clear
4:35 AM 71.6 °F - 51.8 °F 50% 29.87 in 10.0 mi East 6.9 mph - N/A   Clear
4:55 AM 71.6 °F - 51.8 °F 50% 29.86 in 10.0 mi East 9.2 mph - N/A   Clear
5:15 AM 71.6 °F - 50.0 °F 46% 29.87 in 10.0 mi East 9.2 mph - N/A   Clear
5:35 AM 71.6 °F - 50.0 °F 46% 29.87 in 10.0 mi East 9.2 mph - N/A   Clear
5:55 AM 71.6 °F - 50.0 °F 46% 29.86 in 10.0 mi East 8.1 mph - N/A   Clear
6:15 AM 71.6 °F - 50.0 °F 46% 29.86 in 10.0 mi East 9.2 mph - N/A   Clear
6:35 AM 73.4 °F - 50.0 °F 44% 29.87 in 10.0 mi East 8.1 mph 15.0 mph N/A   Clear
6:55 AM 73.4 °F - 50.0 °F 44% 29.87 in 10.0 mi East 6.9 mph - N/A   Clear
7:15 AM 75.2 °F - 50.0 °F 41% 29.87 in 10.0 mi East 6.9 mph - N/A   Clear
7:35 AM 77.0 °F - 51.8 °F 41% 29.88 in 7.0 mi Calm Calm - N/A   Clear
7:55 AM 77.0 °F - 51.8 °F 41% 29.88 in 10.0 mi Calm Calm - N/A   Clear
8:15 AM 77.0 °F - 57.2 °F 50% 29.88 in 7.0 mi Calm Calm - N/A   Clear
8:35 AM 78.8 °F - 55.4 °F 44% 29.88 in 10.0 mi Calm Calm - N/A   Clear
8:55 AM 78.8 °F - 57.2 °F 47% 29.88 in 9.0 mi Calm Calm - N/A   Clear
9:15 AM 80.6 °F 81.1 °F 59.0 °F 48% 29.88 in 6.0 mi Calm Calm - N/A   Haze
9:35 AM 80.6 °F 80.8 °F 57.2 °F 45% 29.89 in 6.0 mi Calm Calm - N/A   Haze
9:55 AM 82.4 °F 82.9 °F 60.8 °F 48% 29.89 in 10.0 mi Calm Calm - N/A   Clear
10:15 AM 82.4 °F 83.4 °F 62.6 °F 51% 29.89 in 10.0 mi Calm Calm - N/A   Clear
10:35 AM 82.4 °F 83.4 °F 62.6 °F 51% 29.89 in 10.0 mi Calm Calm - N/A   Clear
10:55 AM 82.4 °F 82.9 °F 60.8 °F 48% 29.89 in 8.0 mi Calm Calm - N/A   Clear
11:15 AM 84.2 °F 85.0 °F 62.6 °F 48% 29.89 in 10.0 mi Calm Calm - N/A   Clear
11:35 AM 84.2 °F 85.0 °F 62.6 °F 48% 29.89 in 10.0 mi SW 5.8 mph - N/A   Clear
11:55 AM 84.2 °F 85.0 °F 62.6 °F 48% 29.89 in 10.0 mi Calm Calm - N/A   Clear
12:15 PM 84.2 °F 85.0 °F 62.6 °F 48% 29.89 in 8.0 mi Calm Calm - N/A   Clear
12:35 PM 84.2 °F 84.4 °F 60.8 °F 45% 29.89 in 9.0 mi Calm Calm - N/A   Clear
12:55 PM 84.2 °F 83.8 °F 59.0 °F 42% 29.89 in 9.0 mi Variable 3.5 mph - N/A   Clear
1:15 PM 86.0 °F 85.4 °F 59.0 °F 40% 29.89 in 7.0 mi Calm Calm - N/A   Clear
1:35 PM 86.0 °F 86.1 °F 60.8 °F 43% 29.89 in 9.0 mi Variable 5.8 mph - N/A   Clear
1:55 PM 86.0 °F 86.1 °F 60.8 °F 43% 29.89 in 9.0 mi Variable 3.5 mph - N/A   Clear
2:15 PM 86.0 °F 86.1 °F 60.8 °F 43% 29.89 in 10.0 mi Variable 6.9 mph 13.8 mph N/A   Clear
2:35 PM 86.0 °F 86.1 °F 60.8 °F 43% 29.89 in 9.0 mi Calm Calm - N/A   Clear
2:55 PM 86.0 °F 86.1 °F 60.8 °F 43% 29.88 in 5.0 mi Calm Calm - N/A   Haze
3:15 PM 86.0 °F 86.1 °F 60.8 °F 43% 29.88 in 7.0 mi Calm Calm - N/A   Clear
3:35 PM 86.0 °F 86.1 °F 60.8 °F 43% 29.87 in 9.0 mi Calm Calm - N/A   Clear
3:55 PM 86.0 °F 85.4 °F 59.0 °F 40% 29.87 in 5.0 mi South 5.8 mph - N/A   Haze
4:15 PM 86.0 °F 85.4 °F 59.0 °F 40% 29.86 in 5.0 mi South 6.9 mph - N/A   Haze
4:35 PM 86.0 °F 85.4 °F 59.0 °F 40% 29.86 in 7.0 mi SSW 5.8 mph - N/A   Clear
4:55 PM 84.2 °F 83.8 °F 59.0 °F 42% 29.86 in 10.0 mi SSW 6.9 mph - N/A   Clear
5:15 PM 86.0 °F 85.4 °F 59.0 °F 40% 29.85 in 8.0 mi Variable 6.9 mph - N/A   Clear
5:35 PM 84.2 °F 83.8 °F 59.0 °F 42% 29.85 in 7.0 mi South 5.8 mph - N/A   Clear
5:55 PM 84.2 °F 83.8 °F 59.0 °F 42% 29.85 in 6.0 mi South 8.1 mph - N/A   Haze
6:15 PM 84.2 °F 83.8 °F 59.0 °F 42% 29.85 in 8.0 mi SSW 8.1 mph - N/A   Clear
6:35 PM 84.2 °F 83.8 °F 59.0 °F 42% 29.85 in 8.0 mi SSW 5.8 mph - N/A   Clear
6:55 PM 82.4 °F 82.5 °F 59.0 °F 45% 29.85 in 9.0 mi SSW 5.8 mph - N/A   Clear
7:15 PM 82.4 °F 82.5 °F 59.0 °F 45% 29.85 in 9.0 mi SSW 5.8 mph - N/A   Clear
7:35 PM 80.6 °F 81.1 °F 59.0 °F 48% 29.85 in 3.0 mi Calm Calm - N/A   Haze
7:55 PM 80.6 °F 81.1 °F 59.0 °F 48% 29.85 in 3.0 mi Calm Calm - N/A   Haze
8:15 PM 78.8 °F - 59.0 °F 51% 29.85 in 3.0 mi Calm Calm - N/A   Haze
8:35 PM 77.0 °F - 59.0 °F 54% 29.85 in 4.0 mi Calm Calm - N/A   Haze
8:55 PM 77.0 °F - 59.0 °F 54% 29.86 in 6.0 mi Calm Calm - N/A   Haze
9:15 PM 77.0 °F - 59.0 °F 54% 29.87 in 8.0 mi Calm Calm - N/A   Clear
9:35 PM 77.0 °F - 59.0 °F 54% 29.87 in 9.0 mi SE 6.9 mph - N/A   Clear
9:55 PM 77.0 °F - 59.0 °F 54% 29.87 in 10.0 mi ESE 8.1 mph - N/A   Clear
10:15 PM 75.2 °F - 59.0 °F 57% 29.87 in 10.0 mi ESE 6.9 mph - N/A   Clear
10:35 PM 73.4 °F - 59.0 °F 61% 29.87 in 10.0 mi ESE 6.9 mph - N/A   Clear
10:55 PM 73.4 °F - 59.0 °F 61% 29.87 in 10.0 mi East 8.1 mph - N/A   Clear
11:15 PM 71.6 °F - 59.0 °F 64% 29.87 in 10.0 mi Calm Calm - N/A   Clear
11:35 PM 69.8 °F - 59.0 °F 68% 29.88 in 9.0 mi Calm Calm - N/A   Clear
11:55 PM 69.8 °F - 60.8 °F 73% 29.87 in 10.0 mi Calm Calm - N/A   Clear